O3B FM14

Last updated on Wed Jun 24 2026 00:03:25 GMT+0000 (Coordinated Universal Time)

1 43233U 18024C 26173.38309653 -.00000023 00000+0 00000+0 0 9990 2 43233 0.0502 7.2075 0002884 84.3913 268.4325 5.00115776151217
UTC large
Height (km)
Speed (km/s)
/
Latitude / Longitude
Inclination (degrees)
Orbital Period (minutes)
Azimuth
Elevation
Range (km)
Doppler Factor

Next 0 passes for location: London (51.5072 / 0.1276)

No passes found over London.
O3B FM14